Wind_Speed
15 15 16 16 17 17 16 16 17 17 18 18 18 18 18 18 18 17 17 17 17 17 17 16 16 16 16 15 15 14 14 13 13 12 12 11 10 9 9 9 9 9 8 8 8 8 8 8 8
16 16 16 17 17 17 16 16 17 18 18 18 18 18 18 18 18 18 18 18 18 18 18 18 18 17 17 17 16 16 15 15 15 14 14 13 12 12 11 10 10 10 10 9 9 9 9 9 9
17 17 17 18 17 17 17 17 18 18 18 19 19 19 19 19 19 19 19 19 19 19 19 19 19 19 19 18 18 18 17 17 17 16 16 15 15 14 13 12 12 12 11 11 11 10 10 10 10
18 18 19 19 18 18 18 18 18 19 19 20 20 20 20 20 20 20 20 20 20 20 20 20 20 20 20 20 19 19 19 19 18 18 18 17 17 16 15 14 14 13 13 13 13 12 12 12 11
19 20 20 20 19 18 19 19 19 19 20 21 21 21 21 21 21 21 21 21 21 21 21 21 21 21 21 21 21 20 20 20 19 20 19 19 19 18 18 17 16 16 16 15 15 14 14 14 14
20 20 20 20 20 20 20 20 20 20 21 22 22 22 22 22 23 23 22 22 22 22 22 22 22 22 22 22 22 22 22 21 21 21 21 20 20 20 19 19 19 18 18 17 17 17 16 16 16
21 21 21 21 21 21 21 21 21 21 22 22 23 23 23 24 24 24 24 23 23 23 23 23 23 23 23 23 23 23 23 23 23 23 23 23 23 22 22 21 21 21 20 20 19 19 19 18 18
22 22 22 22 23 23 23 23 23 23 23 23 24 24 24 25 25 25 26 26 25 25 25 25 25 25 25 25 25 25 24 24 25 25 24 24 25 25 24 24 23 23 23 22 22 21 21 21 21
23 23 23 23 24 24 24 25 25 25 25 24 25 26 26 26 27 27 27 27 27 27 26 27 27 27 26 26 26 26 26 25 25 25 25 26 26 26 26 26 26 25 25 25 24 24 24 23 23
24 24 24 24 25 25 26 26 27 26 26 26 27 27 28 28 28 28 28 28 28 28 28 28 28 28 28 28 27 27 27 27 27 27 27 27 27 27 27 27 27 27 27 27 27 26 26 25 25
25 25 25 26 27 27 28 28 28 28 28 28 28 29 29 29 30 30 30 30 29 29 29 29 29 29 29 29 29 29 29 29 28 28 28 28 28 28 28 28 28 29 29 29 29 29 28 28 27
27 27 28 28 29 29 29 29 29 29 29 30 30 30 31 31 31 31 32 32 31 31 31 30 30 31 31 31 30 30 30 30 30 30 30 30 30 30 30 30 30 30 30 30 30 30 30 30 30
28 28 29 30 30 31 31 30 31 29 30 31 31 32 32 33 33 34 34 34 33 33 32 32 32 32 32 32 32 32 32 32 32 32 32 32 32 32 32 31 31 31 31 32 32 32 31 31 31
30 30 31 31 32 32 33 32 32 31 32 33 33 33 33 33 34 34 35 35 35 34 34 33 33 33 33 33 33 33 33 33 33 34 34 33 33 33 33 33 33 33 33 33 33 33 33 32 33
32 32 33 33 34 34 35 34 33 33 34 34 34 34 34 35 35 35 35 36 36 36 36 35 35 35 35 34 34 34 34 35 35 35 35 34 34 34 34 34 34 34 34 35 34 34 34 34 34
33 34 34 34 35 35 37 36 35 35 35 35 35 35 35 35 35 35 36 36 37 37 37 37 36 36 36 35 35 35 36 36 36 36 36 36 36 35 35 35 35 35 35 36 36 35 36 36 35
35 36 36 36 36 37 37 37 37 36 36 36 36 36 36 37 37 37 37 37 37 37 37 38 38 38 37 37 37 36 36 37 37 37 37 37 37 36 36 36 36 36 36 36 36 36 36 37 37
36 37 37 38 38 38 38 38 38 38 38 37 37 37 37 37 38 38 38 38 38 37 38 38 38 38 38 38 38 37 37 37 37 37 37 37 37 37 36 37 36 37 37 36 36 36 37 37 37
38 38 38 39 39 40 40 40 39 39 39 38 37 37 37 37 37 38 38 39 40 39 39 39 39 39 38 38 38 38 37 38 38 37 37 37 37 37 36 36 36 36 37 37 36 37 36 37 37
38 38 39 39 40 40 40 40 39 38 38 38 38 38 37 37 37 37 38 38 39 40 40 40 40 40 39 39 38 38 38 38 38 38 37 37 37 37 36 36 37 37 38 38 37 37 37 38 38
38 39 39 39 39 40 40 40 38 38 38 38 38 38 37 37 37 38 38 38 39 40 40 40 40 40 40 40 40 39 39 38 38 38 38 37 37 37 37 37 36 37 37 37 37 37 38 38 39
39 39 39 39 39 39 38 39 38 37 37 37 37 37 37 37 38 38 38 38 38 39 39 40 40 40 40 40 41 40 40 39 39 38 38 37 38 37 38 38 37 37 36 37 36 37 38 38 39
39 39 39 39 39 39 38 39 39 38 37 37 37 37 37 37 37 37 37 38 39 39 40 40 40 40 41 41 41 41 41 41 40 40 39 38 38 37 37 38 38 38 38 38 38 38 38 38 39
38 39 39 39 39 39 38 39 39 38 37 37 37 37 37 37 37 37 37 38 39 40 40 40 40 40 41 41 42 42 42 41 41 41 40 40 39 38 37 38 37 37 37 38 38 39 38 39 40
37 38 38 39 39 39 38 38 39 37 37 36 36 36 37 37 37 37 37 38 38 39 40 40 40 41 41 41 42 42 42 42 42 41 41 41 40 39 38 38 37 37 37 37 38 38 39 40 40
36 36 35 36 37 38 38 39 38 37 37 36 36 37 37 37 36 36 37 37 37 38 39 40 40 40 41 42 42 42 42 42 42 42 42 42 41 40 39 39 38 38 38 38 39 38 39 40 41
35 34 34 35 37 37 37 37 38 37 37 36 36 36 36 36 36 36 37 37 37 38 38 38 39 40 40 41 42 42 42 42 43 43 43 43 42 41 40 39 39 39 39 39 39 40 39 40 41
34 33 33 34 35 36 36 35 35 34 35 35 36 35 35 35 36 36 36 36 37 38 38 38 39 39 40 40 41 42 42 42 43 43 43 43 42 42 41 40 40 40 40 39 38 39 39 41 41
31 31 32 33 34 35 35 35 34 33 34 34 33 33 33 33 34 35 35 36 36 37 37 38 38 38 39 40 40 41 41 42 42 43 43 43 43 42 41 41 41 40 40 39 39 39 40 40 40
31 30 30 31 32 33 34 35 34 33 34 34 34 34 33 33 34 34 35 35 35 35 36 37 38 38 38 38 39 40 41 41 41 42 43 43 42 42 41 41 41 41 40 39 39 40 40 40 40
Wind_Direction
256 254 253 253 253 254 256 255 253 252 251 250 249 249 248 247 246 247 247 246 245 244 244 243 242 242 241 239 238 239 238 236 236 236 237 236 235 234 234 233 231 228 228 227 226 226 227 228 226
256 256 255 255 255 255 255 254 253 252 251 251 250 250 249 249 248 249 248 247 246 245 245 245 244 244 244 242 241 240 239 239 239 239 240 240 239 238 238 239 238 235 234 234 232 231 232 233 232
256 256 256 255 255 256 256 255 254 252 252 251 251 250 250 250 250 249 248 248 247 247 246 246 245 246 247 245 244 242 241 242 242 242 242 242 242 241 242 242 241 241 240 240 238 237 236 236 236
259 258 257 257 256 256 257 256 255 254 252 252 252 252 252 251 251 251 250 249 249 249 249 247 246 247 248 247 246 245 244 244 243 244 243 243 243 242 243 243 243 245 245 245 243 242 242 239 238
261 259 259 258 258 258 258 258 257 255 253 253 252 252 252 251 252 251 251 251 251 251 250 249 248 248 248 248 248 246 246 245 244 244 244 243 243 242 243 244 244 245 246 247 248 247 245 243 241
261 260 259 259 259 260 260 260 259 257 254 253 253 253 253 252 252 252 252 252 252 252 251 251 249 248 248 248 247 247 246 246 246 245 245 244 243 244 244 245 245 245 246 247 249 249 246 245 245
262 261 261 260 260 260 261 261 260 258 256 255 254 254 253 253 253 252 252 252 252 253 252 251 250 250 248 248 248 248 247 247 247 247 246 245 245 245 245 246 246 247 247 248 249 250 249 248 247
263 262 261 261 262 261 261 261 261 259 258 256 255 254 253 253 252 252 252 253 253 254 253 252 251 251 250 249 248 248 248 248 248 248 248 247 246 246 246 246 247 248 248 248 249 250 251 251 249
263 262 262 263 263 262 262 262 261 259 257 255 254 254 253 253 253 252 252 253 253 254 254 252 251 250 249 249 249 248 248 249 249 248 248 248 248 248 248 248 248 250 250 250 250 250 251 251 251
264 264 263 263 263 263 262 262 261 259 258 257 256 255 255 254 254 254 253 253 254 254 254 253 252 250 249 249 249 249 249 250 250 250 249 249 249 249 248 248 249 250 251 252 251 251 251 251 251
266 266 265 264 264 264 263 262 260 260 260 259 258 257 257 256 255 254 254 254 254 254 254 253 253 252 250 250 250 250 251 251 251 250 250 250 251 250 249 249 250 251 251 252 252 252 251 251 251
268 267 266 265 265 264 264 263 262 261 261 260 259 257 256 255 255 254 253 253 254 254 254 254 254 253 252 252 251 251 251 251 251 251 252 251 251 251 251 251 251 252 252 252 252 253 253 252 251
269 268 268 266 265 265 264 263 263 262 261 261 260 259 258 256 256 255 253 253 253 253 253 253 253 253 253 253 253 252 251 252 252 252 253 253 252 251 251 252 253 253 253 252 253 253 253 252 252
271 269 268 267 266 265 265 263 263 262 262 262 262 261 260 258 257 256 255 254 253 253 253 253 253 252 252 252 253 253 253 253 253 253 253 253 253 253 252 253 254 254 254 254 253 252 252 252 252
273 271 269 268 267 266 265 263 264 263 263 263 262 262 261 259 258 257 256 255 254 253 252 253 253 253 252 252 252 253 253 253 254 254 254 253 253 253 253 254 255 254 253 254 254 253 252 252 251
274 272 271 269 268 266 265 265 265 265 264 263 262 261 260 259 258 257 256 255 254 253 252 252 252 252 253 253 253 253 254 254 254 254 254 254 254 254 254 254 255 254 254 254 254 254 253 251 250
275 274 272 270 268 267 267 267 267 266 264 263 262 261 260 259 258 257 256 255 254 253 252 251 251 252 253 253 254 254 254 254 254 255 255 254 254 255 255 255 257 254 255 255 254 253 251 250 250
276 274 272 271 269 268 267 266 266 266 264 261 261 261 260 259 258 257 256 254 253 254 253 252 251 251 252 252 253 254 254 254 255 255 254 254 254 254 255 255 256 255 255 255 254 253 252 250 250
277 275 274 272 270 269 267 267 266 265 264 261 260 260 259 259 258 257 256 255 254 255 255 253 250 250 251 252 252 253 253 253 254 254 254 254 254 254 255 256 257 257 256 254 255 254 253 251 249
277 276 275 273 272 271 269 267 265 263 262 262 261 260 259 258 258 258 258 257 256 255 254 252 251 251 250 251 251 251 251 252 253 253 254 255 255 254 254 255 256 257 257 255 254 254 253 251 248
277 277 276 275 274 272 271 267 264 262 262 261 260 259 258 258 258 258 257 257 257 256 254 252 251 251 250 251 251 251 251 251 252 253 254 255 255 254 254 255 256 256 256 256 255 255 255 253 251
277 277 275 274 273 272 271 269 265 262 261 260 259 259 258 258 257 257 257 257 256 255 253 252 250 250 250 250 250 251 251 251 251 253 254 254 254 254 255 255 257 257 256 255 255 255 256 255 253
277 276 274 273 272 271 269 268 266 263 262 260 259 258 258 258 257 257 257 256 256 254 252 251 250 249 249 249 249 250 251 251 251 252 253 255 255 254 255 256 256 256 256 255 256 257 257 256 255
278 276 274 271 270 270 269 268 267 265 264 263 261 259 258 257 258 258 257 256 255 253 251 250 249 249 248 248 248 249 250 250 251 251 252 254 254 254 255 255 256 257 256 257 258 257 256 257 257
278 276 275 273 271 270 269 268 268 267 266 266 264 261 259 259 258 258 256 255 254 252 250 250 249 249 248 248 248 248 249 249 250 251 252 253 254 255 256 256 257 257 257 257 257 257 256 257 257
279 277 275 274 273 272 269 268 268 268 267 266 264 262 261 260 258 257 256 255 253 252 251 249 249 248 248 248 248 248 248 249 249 250 252 252 253 254 256 257 257 257 257 258 259 258 258 258 259
280 277 275 272 272 272 271 269 268 267 266 265 263 262 260 259 258 257 255 254 253 252 251 250 248 248 248 248 248 248 248 248 249 249 251 252 253 254 255 257 258 258 258 260 261 259 260 259 260
281 278 275 272 272 272 271 269 269 267 266 264 263 262 259 258 258 256 254 253 252 251 251 250 249 248 247 247 248 248 248 248 248 248 250 251 253 254 255 257 258 258 259 260 261 260 260 261 262
280 277 274 272 271 270 270 269 268 267 266 265 264 263 260 259 256 254 254 252 251 250 250 250 250 249 249 249 249 249 249 249 249 249 250 251 252 253 255 257 257 258 259 260 260 261 261 262 262
280 277 274 272 272 270 269 268 268 268 265 264 263 261 259 257 256 254 253 253 251 251 250 250 251 250 249 249 249 249 249 249 250 249 249 251 252 253 255 256 257 258 258 260 261 261 261 263 263
Height
5831 5831 5832 5833 5834 5834 5834 5835 5835 5835 5836 5836 5837 5837 5838 5839 5840 5842 5841 5840 5840 5841 5841 5842 5843 5843 5844 5845 5846 5847 5847 5848 5849 5850 5850 5851 5851 5852 5853 5853 5853 5854 5854 5855 5855 5856 5856 5857 5857
5828 5829 5830 5830 5830 5830 5831 5831 5831 5832 5832 5833 5833 5834 5834 5835 5835 5836 5836 5836 5837 5837 5838 5839 5839 5840 5841 5842 5843 5844 5845 5846 5846 5847 5848 5849 5849 5850 5850 5851 5851 5852 5852 5853 5854 5854 5855 5855 5856
5825 5825 5826 5826 5827 5827 5828 5828 5827 5828 5828 5829 5829 5830 5830 5831 5832 5832 5832 5833 5833 5834 5834 5835 5836 5837 5838 5839 5840 5841 5841 5842 5843 5844 5845 5846 5847 5847 5848 5849 5849 5850 5850 5851 5852 5852 5853 5854 5854
5821 5822 5823 5823 5823 5824 5823 5823 5823 5824 5824 5825 5825 5826 5827 5827 5828 5828 5828 5829 5830 5830 5830 5831 5832 5833 5834 5835 5836 5837 5838 5839 5840 5841 5842 5843 5844 5845 5845 5846 5847 5847 5848 5849 5849 5850 5851 5852 5852
5817 5818 5818 5819 5819 5819 5819 5819 5819 5819 5820 5820 5821 5821 5822 5823 5823 5824 5824 5825 5825 5826 5826 5827 5828 5829 5830 5831 5832 5833 5834 5835 5836 5837 5838 5839 5840 5841 5842 5843 5844 5845 5845 5846 5847 5847 5848 5849 5850
5813 5814 5814 5814 5815 5815 5815 5814 5815 5815 5815 5816 5816 5817 5817 5818 5818 5819 5820 5820 5821 5822 5822 5823 5823 5824 5825 5826 5827 5828 5829 5831 5832 5833 5834 5835 5836 5837 5838 5839 5840 5841 5842 5843 5844 5844 5845 5846 5847
5809 5809 5809 5810 5810 5810 5810 5809 5810 5810 5810 5811 5811 5812 5812 5813 5813 5814 5815 5815 5816 5817 5817 5818 5818 5819 5820 5821 5822 5823 5825 5826 5827 5828 5829 5830 5832 5833 5834 5835 5836 5837 5838 5839 5840 5841 5842 5843 5844
5804 5804 5804 5804 5804 5805 5805 5804 5804 5804 5805 5805 5805 5806 5807 5807 5808 5808 5809 5810 5810 5811 5812 5813 5813 5814 5815 5816 5817 5818 5819 5821 5822 5823 5824 5825 5827 5828 5829 5830 5832 5833 5834 5835 5836 5837 5838 5839 5840
5798 5799 5799 5799 5799 5799 5799 5798 5798 5799 5799 5799 5799 5800 5801 5801 5802 5802 5803 5804 5805 5806 5806 5807 5808 5809 5810 5811 5812 5813 5814 5815 5816 5817 5819 5820 5821 5822 5824 5825 5826 5828 5829 5830 5831 5832 5833 5834 5835
5792 5793 5794 5794 5793 5793 5792 5792 5792 5792 5793 5793 5793 5793 5794 5794 5795 5796 5797 5798 5798 5799 5800 5801 5802 5803 5804 5805 5806 5807 5808 5809 5810 5812 5813 5814 5815 5817 5818 5819 5821 5822 5823 5824 5826 5827 5828 5829 5830
5786 5787 5788 5787 5786 5786 5786 5786 5785 5786 5786 5787 5787 5787 5787 5787 5788 5789 5790 5791 5791 5792 5793 5794 5795 5796 5798 5799 5800 5801 5802 5803 5804 5805 5807 5808 5809 5810 5812 5813 5815 5816 5817 5818 5820 5821 5822 5824 5825
5780 5780 5780 5780 5779 5779 5779 5779 5779 5779 5780 5779 5779 5779 5779 5780 5781 5781 5782 5783 5784 5785 5786 5787 5788 5790 5791 5792 5793 5794 5795 5797 5798 5799 5800 5801 5802 5804 5805 5806 5808 5809 5811 5812 5813 5815 5816 5817 5819
5772 5773 5772 5772 5772 5771 5771 5771 5771 5772 5771 5771 5771 5771 5771 5772 5772 5773 5774 5775 5776 5777 5779 5780 5781 5782 5784 5785 5786 5787 5788 5790 5791 5792 5793 5794 5795 5797 5798 5799 5801 5802 5803 5805 5806 5808 5809 5811 5812
5765 5765 5764 5764 5763 5763 5763 5763 5763 5764 5763 5762 5762 5762 5763 5763 5764 5764 5765 5766 5768 5769 5771 5772 5773 5774 5776 5777 5779 5780 5781 5782 5783 5784 5785 5786 5788 5789 5790 5792 5793 5794 5796 5797 5799 5800 5802 5803 5805
5756 5756 5756 5755 5754 5754 5754 5754 5755 5754 5754 5754 5753 5753 5753 5754 5754 5755 5756 5757 5759 5760 5762 5763 5765 5766 5768 5769 5771 5772 5773 5774 5775 5776 5777 5779 5780 5781 5783 5784 5785 5787 5788 5789 5791 5792 5794 5796 5797
5747 5747 5746 5747 5746 5745 5746 5746 5746 5745 5744 5744 5744 5744 5744 5744 5745 5746 5746 5747 5749 5751 5753 5754 5756 5758 5759 5761 5762 5763 5765 5766 5767 5768 5769 5770 5772 5773 5774 5776 5777 5779 5780 5781 5783 5784 5786 5788 5790
5737 5737 5737 5737 5736 5735 5735 5736 5736 5734 5734 5734 5734 5734 5734 5734 5735 5736 5736 5738 5739 5741 5743 5745 5747 5749 5750 5752 5753 5755 5756 5757 5758 5759 5761 5762 5763 5765 5766 5767 5769 5770 5772 5773 5775 5776 5778 5780 5782
5727 5727 5726 5726 5725 5725 5724 5725 5724 5723 5723 5723 5723 5723 5723 5724 5724 5725 5726 5727 5729 5731 5733 5735 5737 5739 5741 5742 5744 5746 5747 5748 5750 5751 5752 5753 5755 5756 5757 5758 5760 5761 5763 5765 5766 5768 5769 5771 5773
5717 5716 5715 5715 5713 5713 5713 5713 5713 5712 5712 5712 5713 5713 5714 5714 5714 5714 5715 5716 5718 5720 5722 5724 5727 5729 5731 5733 5735 5737 5738 5739 5741 5742 5743 5745 5746 5747 5749 5750 5751 5753 5754 5756 5757 5759 5761 5762 5764
5706 5704 5704 5703 5701 5700 5701 5701 5702 5701 5702 5702 5702 5703 5704 5704 5704 5705 5705 5706 5708 5710 5712 5714 5716 5718 5721 5723 5725 5727 5729 5730 5731 5733 5735 5736 5737 5739 5740 5741 5743 5744 5745 5747 5749 5750 5751 5753 5755
5695 5694 5693 5691 5690 5689 5688 5689 5691 5691 5691 5692 5692 5693 5693 5694 5694 5695 5696 5696 5697 5699 5701 5703 5706 5708 5711 5713 5715 5717 5719 5721 5722 5724 5726 5727 5729 5730 5731 5732 5733 5735 5736 5738 5739 5741 5742 5744 5746
5685 5683 5682 5680 5679 5678 5678 5677 5680 5680 5681 5682 5682 5683 5683 5684 5684 5684 5685 5687 5688 5689 5691 5693 5696 5698 5701 5703 5706 5708 5710 5712 5714 5715 5717 5718 5720 5721 5722 5724 5725 5726 5727 5729 5730 5732 5733 5735 5737
5673 5672 5671 5669 5667 5667 5667 5666 5668 5668 5669 5671 5672 5672 5673 5674 5674 5675 5676 5677 5678 5679 5681 5683 5686 5689 5691 5694 5696 5698 5700 5702 5704 5706 5707 5709 5711 5712 5713 5714 5716 5717 5718 5720 5721 5723 5724 5726 5727
5662 5661 5659 5657 5656 5656 5657 5656 5656 5658 5659 5660 5661 5661 5662 5663 5664 5665 5666 5666 5668 5669 5671 5673 5676 5678 5681 5683 5686 5688 5690 5692 5694 5696 5698 5700 5701 5703 5704 5705 5706 5708 5709 5711 5712 5714 5715 5716 5718
5651 5649 5647 5645 5644 5645 5646 5644 5646 5647 5648 5649 5650 5650 5651 5652 5653 5654 5655 5656 5658 5659 5661 5663 5666 5668 5670 5673 5675 5677 5679 5681 5684 5686 5688 5690 5692 5694 5695 5696 5698 5699 5700 5702 5703 5704 5706 5707 5709
5639 5638 5637 5635 5634 5634 5634 5634 5637 5637 5637 5638 5638 5639 5640 5641 5642 5643 5644 5646 5647 5649 5651 5653 5655 5657 5660 5662 5664 5666 5669 5671 5673 5676 5678 5680 5682 5684 5686 5687 5688 5690 5691 5692 5693 5695 5696 5698 5699
5628 5627 5627 5625 5623 5623 5623 5624 5625 5626 5626 5627 5627 5628 5629 5630 5631 5632 5634 5636 5637 5639 5641 5643 5645 5647 5649 5651 5653 5655 5658 5660 5663 5665 5667 5670 5672 5674 5676 5677 5679 5680 5682 5683 5684 5685 5686 5688 5688
5618 5617 5616 5614 5612 5612 5613 5614 5615 5616 5616 5616 5616 5617 5618 5619 5621 5622 5623 5625 5627 5629 5630 5632 5634 5637 5638 5641 5643 5645 5647 5650 5652 5655 5657 5659 5662 5664 5666 5667 5669 5671 5672 5673 5674 5675 5676 5677 5678
5608 5607 5605 5604 5603 5603 5602 5606 5605 5605 5605 5605 5606 5606 5608 5609 5610 5612 5613 5615 5617 5619 5620 5622 5624 5626 5628 5630 5632 5635 5637 5640 5642 5645 5647 5649 5652 5654 5656 5657 5659 5661 5662 5663 5664 5665 5666 5667 5668
5598 5597 5596 5595 5594 5593 5592 5596 5595 5594 5594 5595 5596 5596 5597 5599 5600 5601 5603 5605 5606 5608 5610 5612 5614 5616 5618 5620 5623 5625 5627 5629 5632 5634 5637 5639 5642 5644 5646 5647 5649 5650 5652 5653 5654 5655 5656 5657 5657